Time,TemperatureF,DewpointF,PressureIn,WindDirection,WindDirectionDegrees,WindSpeedMPH,WindSpeedGustMPH,Humidity,HourlyPrecipIn,Conditions,Clouds,dailyrainin,SoftwareType,DateUTC
2013-06-11 00:01:00,66.9,64.8,30.01,South,191,9.2,9.2,93,0.00,RA,,0.00,WeatherDisplay:10.37,2013-06-11 04:01:00,
2013-06-11 00:02:00,66.9,64.8,30.02,South,191,10.4,10.4,93,0.00,RA,,0.00,WeatherDisplay:10.37,2013-06-11 04:02:00,
2013-06-11 00:07:00,67.0,64.9,30.01,SSW,194,15.0,15.0,93,0.00,RA,,0.00,WeatherDisplay:10.37,2013-06-11 04:07:00,
2013-06-11 00:12:00,67.1,65.0,30.01,South,180,15.0,15.0,93,0.00,CLR,,0.00,WeatherDisplay:10.37,2013-06-11 04:12:00,
2013-06-11 00:17:00,67.1,65.0,30.01,SSW,204,6.9,6.9,93,0.00,CLR,,0.00,WeatherDisplay:10.37,2013-06-11 04:17:00,
2013-06-11 00:22:00,67.2,65.1,30.01,SSW,204,6.9,6.9,93,0.00,CLR,,0.01,WeatherDisplay:10.37,2013-06-11 04:22:00,
2013-06-11 00:27:00,67.2,65.4,30.01,SSW,194,1.1,1.1,94,0.01,RA,,0.01,WeatherDisplay:10.37,2013-06-11 04:27:00,
2013-06-11 00:32:00,67.1,65.6,30.01,SSW,199,8.1,8.1,95,0.02,RA,,0.02,WeatherDisplay:10.37,2013-06-11 04:32:00,
2013-06-11 00:37:00,67.1,65.9,30.01,South,187,6.9,6.9,96,0.03,RA,,0.03,WeatherDisplay:10.37,2013-06-11 04:37:00,
2013-06-11 00:42:00,67.0,66.1,30.01,SSW,203,12.7,12.7,97,0.03,RA,,0.03,WeatherDisplay:10.37,2013-06-11 04:42:00,
2013-06-11 00:47:00,67.1,66.2,30.01,SSW,195,9.2,9.2,97,0.03,,,0.03,WeatherDisplay:10.37,2013-06-11 04:47:00,
2013-06-11 00:52:00,67.1,66.2,30.01,South,186,10.4,10.4,97,0.03,CLR,,0.03,WeatherDisplay:10.37,2013-06-11 04:52:00,
2013-06-11 00:57:00,67.1,66.2,30.01,SW,216,10.4,10.4,97,0.03,CLR,,0.03,WeatherDisplay:10.37,2013-06-11 04:57:00,
2013-06-11 01:02:00,67.2,66.3,30.00,South,185,6.9,6.9,97,0.03,CLR,,0.03,WeatherDisplay:10.37,2013-06-11 05:02:00,
2013-06-11 01:07:00,67.2,66.3,30.00,SSW,192,5.8,5.8,97,0.03,CLR,,0.03,WeatherDisplay:10.37,2013-06-11 05:07:00,
2013-06-11 01:12:00,67.2,66.3,30.00,SSW,192,16.1,16.1,97,0.03,CLR,,0.03,WeatherDisplay:10.37,2013-06-11 05:12:00,
2013-06-11 01:17:00,67.2,66.3,30.01,SW,217,3.5,0.0,97,0.03,CLR,,0.03,WeatherDisplay:10.37,2013-06-11 05:17:00,
2013-06-11 01:22:00,67.2,66.3,30.01,SSW,193,6.9,6.9,97,0.03,,,0.03,WeatherDisplay:10.37,2013-06-11 05:22:00,
2013-06-11 01:27:00,67.2,66.3,30.01,SSW,199,0.0,0.0,97,0.02,,,0.03,WeatherDisplay:10.37,2013-06-11 05:27:00,
2013-06-11 01:32:00,67.2,66.3,30.01,SSW,209,0.0,0.0,97,0.03,RA,,0.06,WeatherDisplay:10.37,2013-06-11 05:32:00,
2013-06-11 01:38:00,67.1,66.5,30.03,SSW,209,0.0,0.0,98,0.10,RA,,0.13,WeatherDisplay:10.37,2013-06-11 05:38:00,
2013-06-11 01:43:00,67.1,66.5,30.02,NE,48,4.4,4.4,98,0.16,RA,,0.19,WeatherDisplay:10.37,2013-06-11 05:43:00,
2013-06-11 01:48:00,66.9,66.3,30.02,NNW,346,2.3,2.3,98,0.16,RA,,0.19,WeatherDisplay:10.37,2013-06-11 05:48:00,
2013-06-11 01:53:00,66.7,66.1,30.01,WSW,241,2.7,2.7,98,0.17,RA,,0.20,WeatherDisplay:10.37,2013-06-11 05:53:00,
2013-06-11 01:58:00,66.6,66.0,30.01,SW,227,5.8,5.8,98,0.17,RA,,0.20,WeatherDisplay:10.37,2013-06-11 05:58:00,
2013-06-11 02:03:00,66.6,66.0,30.01,SSW,202,6.9,6.9,98,0.17,,,0.20,WeatherDisplay:10.37,2013-06-11 06:03:00,
2013-06-11 02:08:00,66.5,66.2,30.02,SSW,210,1.1,1.1,99,0.17,CLR,,0.20,WeatherDisplay:10.37,2013-06-11 06:08:00,
2013-06-11 02:13:00,66.5,66.2,30.02,SSW,210,0.0,0.0,99,0.17,,,0.20,WeatherDisplay:10.37,2013-06-11 06:13:00,
2013-06-11 02:18:00,66.4,66.1,30.02,South,182,2.3,2.3,99,0.17,,,0.20,WeatherDisplay:10.37,2013-06-11 06:18:00,
2013-06-11 02:23:00,66.4,66.1,30.02,SW,217,3.5,3.5,99,0.17,,,0.20,WeatherDisplay:10.37,2013-06-11 06:23:00,
2013-06-11 02:28:00,66.3,65.7,30.01,SSW,198,8.1,8.1,98,0.17,,,0.20,WeatherDisplay:10.37,2013-06-11 06:28:00,
2013-06-11 02:33:00,66.2,65.6,30.02,SSW,198,3.5,3.5,98,0.15,,,0.20,WeatherDisplay:10.37,2013-06-11 06:33:00,
2013-06-11 02:38:00,66.1,65.8,30.02,SSW,212,5.8,5.8,99,0.07,,,0.20,WeatherDisplay:10.37,2013-06-11 06:38:00,
2013-06-11 02:43:00,66.1,65.8,30.02,SSW,212,0.0,0.0,99,0.01,,,0.20,WeatherDisplay:10.37,2013-06-11 06:43:00,
2013-06-11 02:48:00,66.0,65.7,30.02,South,191,2.3,2.3,99,0.01,,,0.20,WeatherDisplay:10.37,2013-06-11 06:48:00,
2013-06-11 02:53:00,65.9,65.6,30.01,South,183,3.5,0.0,99,0.01,RA,,0.21,WeatherDisplay:10.37,2013-06-11 06:53:00,
2013-06-11 02:58:00,65.9,65.6,30.01,South,183,1.1,0.0,99,0.01,RA,,0.21,WeatherDisplay:10.37,2013-06-11 06:58:00,
2013-06-11 03:03:00,65.8,65.5,30.02,South,183,1.1,1.1,99,0.01,CLR,,0.21,WeatherDisplay:10.37,2013-06-11 07:03:00,
2013-06-11 03:08:00,65.8,65.5,30.01,SSW,212,10.4,10.4,99,0.01,,,0.21,WeatherDisplay:10.37,2013-06-11 07:08:00,
2013-06-11 03:13:00,65.7,65.4,30.02,SSW,205,0.0,0.0,99,0.01,,,0.21,WeatherDisplay:10.37,2013-06-11 07:13:00,
2013-06-11 03:18:00,65.7,65.4,30.02,SW,220,9.2,9.2,99,0.01,,,0.21,WeatherDisplay:10.37,2013-06-11 07:18:00,
2013-06-11 03:23:00,65.7,65.4,30.01,SW,215,1.1,0.0,99,0.01,,,0.21,WeatherDisplay:10.37,2013-06-11 07:23:00,
2013-06-11 03:28:00,65.8,65.5,30.01,SW,216,1.3,1.3,99,0.01,,,0.21,WeatherDisplay:10.37,2013-06-11 07:28:00,
2013-06-11 03:33:00,65.8,65.5,30.01,SW,216,1.3,0.0,99,0.01,,,0.21,WeatherDisplay:10.37,2013-06-11 07:33:00,
2013-06-11 03:38:00,65.8,65.5,30.01,SW,216,0.0,0.0,99,0.01,,,0.21,WeatherDisplay:10.37,2013-06-11 07:38:00,
2013-06-11 03:43:00,65.7,65.4,30.01,SW,216,0.0,0.0,99,0.01,,,0.21,WeatherDisplay:10.37,2013-06-11 07:43:00,
2013-06-11 03:48:00,65.8,65.5,30.01,SW,231,3.5,0.0,99,0.01,,,0.21,WeatherDisplay:10.37,2013-06-11 07:48:00,
2013-06-11 03:53:00,65.8,65.8,30.01,SW,231,0.0,0.0,100,0.00,,,0.21,WeatherDisplay:10.37,2013-06-11 07:53:00,
2013-06-11 03:58:00,65.8,65.8,30.01,SW,230,1.1,0.0,100,0.00,,,0.21,WeatherDisplay:10.37,2013-06-11 07:58:00,
2013-06-11 04:03:00,65.8,65.8,30.01,SSW,196,5.4,5.4,100,0.00,,,0.21,WeatherDisplay:10.37,2013-06-11 08:03:00,
2013-06-11 04:08:00,65.9,65.9,30.01,South,191,1.1,0.0,100,0.00,,,0.21,WeatherDisplay:10.37,2013-06-11 08:08:00,
2013-06-11 04:13:00,65.8,65.8,30.01,SSW,195,5.8,5.8,100,0.00,,,0.21,WeatherDisplay:10.37,2013-06-11 08:13:00,
2013-06-11 04:18:00,65.9,65.9,30.01,SW,216,5.8,5.8,100,0.00,,,0.21,WeatherDisplay:10.37,2013-06-11 08:18:00,
2013-06-11 04:23:00,65.9,65.9,30.01,SW,225,4.0,4.0,100,0.00,,,0.21,WeatherDisplay:10.37,2013-06-11 08:23:00,
2013-06-11 04:28:00,65.9,65.9,30.01,WSW,237,5.8,5.8,100,0.00,,,0.21,WeatherDisplay:10.37,2013-06-11 08:28:00,
2013-06-11 04:33:00,65.9,65.9,30.01,SW,222,1.1,1.1,100,0.00,,,0.21,WeatherDisplay:10.37,2013-06-11 08:33:00,
2013-06-11 04:38:00,65.8,65.8,30.01,WSW,258,2.3,2.3,100,0.00,,,0.21,WeatherDisplay:10.37,2013-06-11 08:38:00,
2013-06-11 04:43:00,65.8,65.8,30.01,WSW,256,0.0,0.0,100,0.00,,,0.21,WeatherDisplay:10.37,2013-06-11 08:43:00,
2013-06-11 04:48:00,65.8,65.8,30.01,SSW,193,2.3,2.3,100,0.00,,,0.21,WeatherDisplay:10.37,2013-06-11 08:48:00,
2013-06-11 04:53:00,65.8,65.8,30.01,SSW,213,3.5,0.0,100,0.00,,,0.21,WeatherDisplay:10.37,2013-06-11 08:53:00,
2013-06-11 04:58:00,65.8,65.8,30.01,SW,214,0.0,0.0,100,0.00,,,0.21,WeatherDisplay:10.37,2013-06-11 08:58:00,
2013-06-11 05:03:00,65.8,65.8,30.01,SW,214,0.0,0.0,100,0.00,,,0.21,WeatherDisplay:10.37,2013-06-11 09:03:00,
2013-06-11 05:08:00,65.8,65.8,30.02,SW,223,0.0,0.0,100,0.00,,,0.21,WeatherDisplay:10.37,2013-06-11 09:08:00,
2013-06-11 05:13:00,65.8,65.8,30.02,SW,220,2.3,2.3,100,0.00,,,0.21,WeatherDisplay:10.37,2013-06-11 09:13:00,
2013-06-11 05:18:00,65.8,65.8,30.02,West,259,3.5,3.5,100,0.00,,,0.21,WeatherDisplay:10.37,2013-06-11 09:18:00,
2013-06-11 05:23:00,65.8,65.8,30.02,SSW,192,4.6,0.0,100,0.00,,,0.21,WeatherDisplay:10.37,2013-06-11 09:23:00,
2013-06-11 05:28:00,65.8,65.8,30.02,SSW,205,0.0,0.0,100,0.00,,,0.21,WeatherDisplay:10.37,2013-06-11 09:28:00,
2013-06-11 05:33:00,65.8,65.8,30.02,SSW,204,0.0,0.3,100,0.00,,,0.21,WeatherDisplay:10.37,2013-06-11 09:33:00,
2013-06-11 05:38:00,65.8,65.8,30.02,SW,220,1.3,1.3,100,0.00,,,0.21,WeatherDisplay:10.37,2013-06-11 09:38:00,
2013-06-11 05:43:00,65.8,65.8,30.03,SSW,212,3.5,0.0,100,0.00,,,0.21,WeatherDisplay:10.37,2013-06-11 09:43:00,
2013-06-11 05:48:00,65.7,65.7,30.03,SSW,196,1.1,0.0,100,0.00,,,0.21,WeatherDisplay:10.37,2013-06-11 09:48:00,
2013-06-11 05:53:00,65.7,65.7,30.02,SSW,196,0.0,0.0,100,0.00,,,0.21,WeatherDisplay:10.37,2013-06-11 09:53:00,
2013-06-11 05:58:00,65.7,65.7,30.03,SSW,211,1.1,0.0,100,0.00,,,0.21,WeatherDisplay:10.37,2013-06-11 09:58:00,
2013-06-11 06:03:00,65.7,65.7,30.03,SSW,211,1.1,0.0,100,0.00,,,0.21,WeatherDisplay:10.37,2013-06-11 10:03:00,
2013-06-11 06:08:00,65.6,65.6,30.03,SW,217,3.5,0.0,100,0.00,,,0.21,WeatherDisplay:10.37,2013-06-11 10:08:00,
2013-06-11 06:13:00,65.6,65.6,30.02,SW,217,0.0,0.1,100,0.00,,,0.21,WeatherDisplay:10.37,2013-06-11 10:13:00,
2013-06-11 06:18:00,65.5,65.5,30.02,SSW,213,1.1,1.1,100,0.00,,,0.21,WeatherDisplay:10.37,2013-06-11 10:18:00,
2013-06-11 06:23:00,65.4,65.4,30.03,SW,218,3.5,3.5,100,0.00,,,0.21,WeatherDisplay:10.37,2013-06-11 10:23:00,
2013-06-11 06:28:00,65.4,65.4,30.03,SW,218,0.0,0.0,100,0.00,,,0.21,WeatherDisplay:10.37,2013-06-11 10:28:00,
2013-06-11 06:33:00,65.3,65.3,30.03,SW,223,4.0,4.0,100,0.00,,,0.21,WeatherDisplay:10.37,2013-06-11 10:33:00,
2013-06-11 06:38:00,65.3,65.3,30.04,SW,217,1.1,0.0,100,0.00,,,0.21,WeatherDisplay:10.37,2013-06-11 10:38:00,
2013-06-11 06:43:00,65.3,65.3,30.03,SSW,202,3.5,3.5,100,0.00,,,0.21,WeatherDisplay:10.37,2013-06-11 10:43:00,
2013-06-11 06:48:00,65.2,65.2,30.04,SSW,202,0.0,0.0,100,0.00,,,0.21,WeatherDisplay:10.37,2013-06-11 10:48:00,
2013-06-11 06:53:00,65.2,65.2,30.04,SSW,202,0.0,0.0,100,0.00,,,0.21,WeatherDisplay:10.37,2013-06-11 10:53:00,
2013-06-11 06:58:00,65.2,65.2,30.04,SSW,203,0.0,0.0,100,0.00,,,0.21,WeatherDisplay:10.37,2013-06-11 10:58:00,
2013-06-11 07:03:00,65.2,65.2,30.04,South,181,0.0,0.0,100,0.00,,,0.21,WeatherDisplay:10.37,2013-06-11 11:03:00,
2013-06-11 07:08:00,65.3,65.3,30.04,SSE,154,0.0,0.0,100,0.00,,,0.21,WeatherDisplay:10.37,2013-06-11 11:08:00,
2013-06-11 07:13:00,65.3,65.3,30.04,South,188,0.0,0.0,100,0.00,,,0.21,WeatherDisplay:10.37,2013-06-11 11:13:00,
2013-06-11 07:18:00,65.3,65.3,30.04,SSW,209,0.0,0.0,100,0.00,,,0.21,WeatherDisplay:10.37,2013-06-11 11:18:00,
2013-06-11 07:23:00,65.3,65.3,30.05,WSW,252,0.0,0.0,100,0.00,,,0.21,WeatherDisplay:10.37,2013-06-11 11:23:00,
2013-06-11 07:28:00,65.3,65.3,30.05,WSW,251,9.2,9.2,100,0.00,,,0.21,WeatherDisplay:10.37,2013-06-11 11:28:00,
2013-06-11 07:33:00,65.3,65.3,30.05,SW,222,0.0,0.0,100,0.00,,,0.21,WeatherDisplay:10.37,2013-06-11 11:33:00,
2013-06-11 07:38:00,65.3,65.3,30.05,SW,218,1.1,1.1,100,0.00,,,0.21,WeatherDisplay:10.37,2013-06-11 11:38:00,
2013-06-11 07:43:00,65.3,65.3,30.05,SW,218,6.9,6.9,100,0.00,,,0.21,WeatherDisplay:10.37,2013-06-11 11:43:00,
2013-06-11 07:48:00,65.3,65.3,30.06,SW,218,1.1,1.1,100,0.00,,,0.21,WeatherDisplay:10.37,2013-06-11 11:48:00,
2013-06-11 07:53:00,65.3,65.3,30.06,SSW,193,6.9,6.9,100,0.00,,,0.21,WeatherDisplay:10.37,2013-06-11 11:53:00,
2013-06-11 07:58:00,65.3,65.3,30.06,SSW,207,2.3,2.3,100,0.00,,,0.21,WeatherDisplay:10.37,2013-06-11 11:58:00,
2013-06-11 08:03:00,65.3,65.3,30.06,South,184,1.1,0.0,100,0.00,,,0.21,WeatherDisplay:10.37,2013-06-11 12:03:00,
2013-06-11 08:08:00,65.3,65.3,30.06,South,183,0.0,0.0,100,0.00,,,0.21,WeatherDisplay:10.37,2013-06-11 12:08:00,
2013-06-11 08:13:00,65.4,65.4,30.06,SSE,154,5.8,5.8,100,0.00,,,0.21,WeatherDisplay:10.37,2013-06-11 12:13:00,
2013-06-11 08:18:00,65.5,65.5,30.06,SSW,193,4.6,4.6,100,0.00,,,0.21,WeatherDisplay:10.37,2013-06-11 12:18:00,
2013-06-11 08:23:00,65.5,65.5,30.06,South,183,0.0,0.0,100,0.00,,,0.21,WeatherDisplay:10.37,2013-06-11 12:23:00,
2013-06-11 08:28:00,65.6,65.6,30.07,South,183,0.0,0.0,100,0.00,,,0.21,WeatherDisplay:10.37,2013-06-11 12:28:00,
2013-06-11 08:33:00,65.6,65.6,30.07,South,183,1.1,1.1,100,0.00,,,0.21,WeatherDisplay:10.37,2013-06-11 12:33:00,
2013-06-11 08:38:00,65.7,65.7,30.06,South,183,1.1,0.0,100,0.00,,,0.21,WeatherDisplay:10.37,2013-06-11 12:38:00,
2013-06-11 08:43:00,65.7,65.7,30.07,SE,139,0.0,0.0,100,0.00,,,0.21,WeatherDisplay:10.37,2013-06-11 12:43:00,
2013-06-11 08:48:00,65.8,65.8,30.07,SSE,151,2.3,0.0,100,0.00,,,0.21,WeatherDisplay:10.37,2013-06-11 12:48:00,
2013-06-11 08:53:00,65.9,65.9,30.07,SW,220,0.0,0.0,100,0.00,,,0.21,WeatherDisplay:10.37,2013-06-11 12:53:00,
2013-06-11 08:58:00,66.0,66.0,30.07,SW,232,3.5,3.5,100,0.00,,,0.21,WeatherDisplay:10.37,2013-06-11 12:58:00,
2013-06-11 09:03:00,66.1,66.1,30.07,SW,216,2.3,2.3,100,0.00,,,0.21,WeatherDisplay:10.37,2013-06-11 13:03:00,
2013-06-11 09:08:00,66.2,66.2,30.08,SSW,213,1.3,1.3,100,0.00,,,0.21,WeatherDisplay:10.37,2013-06-11 13:08:00,
2013-06-11 09:13:00,66.2,66.2,30.08,SSW,202,4.6,4.6,100,0.00,,,0.21,WeatherDisplay:10.37,2013-06-11 13:13:00,
2013-06-11 09:18:00,66.4,66.4,30.08,SSW,202,1.1,1.1,100,0.00,,,0.21,WeatherDisplay:10.37,2013-06-11 13:18:00,
2013-06-11 09:23:00,66.5,66.5,30.08,South,185,2.3,2.3,100,0.00,,,0.21,WeatherDisplay:10.37,2013-06-11 13:23:00,
2013-06-11 09:28:00,66.6,66.6,30.08,SSW,198,2.2,2.2,100,0.00,,,0.21,WeatherDisplay:10.37,2013-06-11 13:28:00,
2013-06-11 09:34:00,66.6,66.6,30.08,SSW,196,2.3,2.3,100,0.00,,,0.21,WeatherDisplay:10.37,2013-06-11 13:34:00,
2013-06-11 09:38:00,66.7,66.7,30.08,SSW,198,4.6,4.6,100,0.00,,,0.21,WeatherDisplay:10.37,2013-06-11 13:38:00,
2013-06-11 09:44:00,66.9,66.9,30.08,South,189,1.1,1.1,100,0.00,,,0.21,WeatherDisplay:10.37,2013-06-11 13:44:00,
2013-06-11 09:49:00,66.9,66.9,30.08,WSW,245,2.3,2.3,100,0.00,,,0.21,WeatherDisplay:10.37,2013-06-11 13:49:00,
2013-06-11 09:54:00,67.0,66.7,30.08,SW,227,8.1,8.1,99,0.00,,,0.21,WeatherDisplay:10.37,2013-06-11 13:54:00,
2013-06-11 09:59:00,67.1,66.8,30.08,SW,216,1.1,1.1,99,0.00,,,0.21,WeatherDisplay:10.37,2013-06-11 13:59:00,
2013-06-11 10:04:00,67.2,66.9,30.08,SSW,195,3.5,3.5,99,0.00,,,0.21,WeatherDisplay:10.37,2013-06-11 14:04:00,
2013-06-11 10:09:00,67.3,67.3,30.08,South,189,4.4,4.4,100,0.00,,,0.21,WeatherDisplay:10.37,2013-06-11 14:09:00,
2013-06-11 10:14:00,67.4,67.4,30.08,SSW,212,5.8,5.8,100,0.00,,,0.21,WeatherDisplay:10.37,2013-06-11 14:14:00,
2013-06-11 10:19:00,67.5,67.2,30.08,South,189,2.3,0.0,99,0.00,,,0.21,WeatherDisplay:10.37,2013-06-11 14:19:00,
2013-06-11 10:24:00,67.6,67.3,30.08,SSW,204,3.3,3.3,99,0.00,,,0.21,WeatherDisplay:10.37,2013-06-11 14:24:00,
2013-06-11 10:29:00,67.8,67.5,30.08,SSW,205,3.5,3.5,99,0.00,,,0.21,WeatherDisplay:10.37,2013-06-11 14:29:00,
2013-06-11 10:34:00,67.9,67.6,30.08,SSW,205,1.1,0.0,99,0.00,,,0.21,WeatherDisplay:10.37,2013-06-11 14:34:00,
2013-06-11 10:39:00,67.9,67.0,30.08,SSW,193,3.3,3.3,97,0.00,,,0.21,WeatherDisplay:10.37,2013-06-11 14:39:00,
2013-06-11 10:44:00,68.1,66.9,30.08,South,186,2.2,2.2,96,0.00,,,0.21,WeatherDisplay:10.37,2013-06-11 14:44:00,
2013-06-11 10:49:00,68.3,67.1,30.08,SSW,208,5.8,5.8,96,0.00,,,0.21,WeatherDisplay:10.37,2013-06-11 14:49:00,
2013-06-11 10:54:00,68.4,66.9,30.08,SSW,206,1.1,0.0,95,0.00,CLR,,0.21,WeatherDisplay:10.37,2013-06-11 14:54:00,
2013-06-11 10:59:00,68.6,67.1,30.08,SE,141,5.8,5.8,95,0.00,,,0.21,WeatherDisplay:10.37,2013-06-11 14:59:00,
2013-06-11 11:04:00,68.9,67.7,30.08,South,171,1.1,1.1,96,0.00,,,0.21,WeatherDisplay:10.37,2013-06-11 15:04:00,
2013-06-11 11:09:00,69.1,67.9,30.08,West,272,1.1,1.1,96,0.00,,,0.21,WeatherDisplay:10.37,2013-06-11 15:09:00,
2013-06-11 11:14:00,69.3,67.8,30.08,NNE,31,1.1,1.1,95,0.00,CLR,,0.21,WeatherDisplay:10.37,2013-06-11 15:14:00,
2013-06-11 11:19:00,69.5,67.7,30.08,NNE,29,0.0,0.0,94,0.00,CLR,,0.21,WeatherDisplay:10.37,2013-06-11 15:19:00,
2013-06-11 11:24:00,69.9,68.4,30.08,NNE,29,0.0,0.0,95,0.00,CLR,,0.21,WeatherDisplay:10.37,2013-06-11 15:24:00,
2013-06-11 11:29:00,70.1,68.6,30.08,SSW,192,4.6,4.6,95,0.00,CLR,,0.21,WeatherDisplay:10.37,2013-06-11 15:29:00,
2013-06-11 11:34:00,70.3,68.5,30.08,SSW,212,0.0,0.0,94,0.00,CLR,,0.21,WeatherDisplay:10.37,2013-06-11 15:34:00,
2013-06-11 11:39:00,70.5,68.7,30.08,NW,316,1.1,1.1,94,0.00,CLR,,0.21,WeatherDisplay:10.37,2013-06-11 15:39:00,
2013-06-11 11:44:00,70.6,67.8,30.08,SSW,212,1.1,0.0,91,0.00,CLR,,0.21,WeatherDisplay:10.37,2013-06-11 15:44:00,
2013-06-11 11:49:00,70.9,67.8,30.08,WNW,302,0.0,0.0,90,0.00,CLR,,0.21,WeatherDisplay:10.37,2013-06-11 15:49:00,
2013-06-11 11:54:00,71.1,67.7,30.08,SE,134,4.6,0.0,89,0.00,CLR,,0.21,WeatherDisplay:10.37,2013-06-11 15:54:00,
2013-06-11 11:59:00,71.3,68.5,30.07,ESE,120,0.0,0.0,91,0.00,CLR,,0.21,WeatherDisplay:10.37,2013-06-11 15:59:00,
2013-06-11 12:04:00,71.6,69.2,30.07,ESE,120,0.0,0.0,92,0.00,CLR,,0.21,WeatherDisplay:10.37,2013-06-11 16:04:00,
2013-06-11 12:09:00,71.9,67.5,30.07,East,90,5.8,5.8,86,0.00,CLR,,0.21,WeatherDisplay:10.37,2013-06-11 16:09:00,
2013-06-11 12:14:00,72.2,68.8,30.07,NNE,18,2.3,0.0,89,0.00,CLR,,0.21,WeatherDisplay:10.37,2013-06-11 16:14:00,
2013-06-11 12:19:00,72.6,68.2,30.07,WSW,239,4.6,4.6,86,0.00,CLR,,0.21,WeatherDisplay:10.37,2013-06-11 16:19:00,
2013-06-11 12:24:00,73.1,69.7,30.07,WSW,249,0.0,0.0,89,0.00,CLR,,0.21,WeatherDisplay:10.37,2013-06-11 16:24:00,
2013-06-11 12:29:00,73.7,69.9,30.07,WSW,248,1.1,0.0,88,0.00,CLR,,0.21,WeatherDisplay:10.37,2013-06-11 16:29:00,
2013-06-11 12:34:00,74.3,70.5,30.07,SE,129,1.1,0.0,88,0.00,CLR,,0.21,WeatherDisplay:10.37,2013-06-11 16:34:00,
2013-06-11 12:39:00,74.7,69.9,30.07,WSW,243,5.8,5.8,85,0.00,CLR,,0.21,WeatherDisplay:10.37,2013-06-11 16:39:00,
2013-06-11 12:44:00,75.1,69.6,30.07,SSW,209,0.0,0.5,83,0.00,CLR,,0.21,WeatherDisplay:10.37,2013-06-11 16:44:00,
2013-06-11 12:49:00,75.8,70.6,30.07,SSW,210,0.0,0.0,84,0.00,CLR,,0.21,WeatherDisplay:10.37,2013-06-11 16:49:00,
2013-06-11 12:54:00,76.4,70.9,30.07,SW,229,0.0,0.0,83,0.00,CLR,,0.21,WeatherDisplay:10.37,2013-06-11 16:54:00,
2013-06-11 12:59:00,76.9,71.0,30.07,NW,317,1.1,1.1,82,0.00,CLR,,0.21,WeatherDisplay:10.37,2013-06-11 16:59:00,
2013-06-11 13:04:00,77.1,70.8,30.06,West,267,1.1,0.0,81,0.00,CLR,,0.21,WeatherDisplay:10.37,2013-06-11 17:04:00,
2013-06-11 13:09:00,77.5,69.3,30.06,WNW,283,6.9,6.9,76,0.00,CLR,,0.21,WeatherDisplay:10.37,2013-06-11 17:09:00,
2013-06-11 13:14:00,78.0,71.0,30.06,SSW,202,0.0,0.0,79,0.00,CLR,,0.21,WeatherDisplay:10.37,2013-06-11 17:14:00,
2013-06-11 13:19:00,78.6,71.2,30.06,SW,235,1.1,0.0,78,0.00,CLR,,0.21,WeatherDisplay:10.37,2013-06-11 17:19:00,
2013-06-11 13:24:00,79.2,71.7,30.06,SW,225,0.0,0.0,78,0.00,CLR,,0.21,WeatherDisplay:10.37,2013-06-11 17:24:00,
2013-06-11 13:29:00,79.7,70.7,30.06,WSW,254,5.8,5.8,74,0.00,CLR,,0.21,WeatherDisplay:10.37,2013-06-11 17:29:00,
2013-06-11 13:34:00,80.1,70.3,30.06,WNW,282,4.6,4.6,72,0.00,CLR,,0.21,WeatherDisplay:10.37,2013-06-11 17:34:00,
2013-06-11 13:39:00,80.1,70.7,30.05,NNW,334,1.1,0.0,73,0.00,CLR,,0.21,WeatherDisplay:10.37,2013-06-11 17:39:00,
2013-06-11 13:44:00,80.0,68.5,30.05,NW,311,1.1,1.1,68,0.00,CLR,,0.21,WeatherDisplay:10.37,2013-06-11 17:44:00,
2013-06-11 13:49:00,80.1,69.8,30.05,WNW,286,4.6,4.6,71,0.00,CLR,,0.21,WeatherDisplay:10.37,2013-06-11 17:49:00,
2013-06-11 13:54:00,80.1,71.8,30.05,South,183,1.1,0.0,76,0.00,CLR,,0.21,WeatherDisplay:10.37,2013-06-11 17:54:00,
2013-06-11 13:59:00,80.0,69.7,30.05,West,262,2.3,2.3,71,0.00,CLR,,0.21,WeatherDisplay:10.37,2013-06-11 17:59:00,
2013-06-11 14:04:00,80.1,69.0,30.05,NW,305,0.0,0.0,69,0.00,CLR,,0.21,WeatherDisplay:10.37,2013-06-11 18:04:00,
2013-06-11 14:09:00,80.2,69.5,30.05,North,351,9.2,9.2,70,0.00,CLR,,0.21,WeatherDisplay:10.37,2013-06-11 18:09:00,
2013-06-11 14:14:00,80.3,67.5,30.05,NW,320,5.8,5.8,65,0.00,CLR,,0.21,WeatherDisplay:10.37,2013-06-11 18:14:00,
2013-06-11 14:19:00,80.5,69.8,30.05,WNW,287,1.1,0.0,70,0.00,CLR,,0.21,WeatherDisplay:10.37,2013-06-11 18:19:00,
2013-06-11 14:24:00,80.5,68.1,30.05,WNW,288,1.1,0.0,66,0.00,CLR,,0.21,WeatherDisplay:10.37,2013-06-11 18:24:00,
2013-06-11 14:29:00,80.4,69.3,30.05,WSW,253,0.0,0.0,69,0.00,CLR,,0.21,WeatherDisplay:10.37,2013-06-11 18:29:00,
2013-06-11 14:34:00,80.6,68.6,30.05,SW,219,1.1,1.1,67,0.00,CLR,,0.21,WeatherDisplay:10.37,2013-06-11 18:34:00,
2013-06-11 14:39:00,80.6,69.5,30.05,South,175,0.0,0.0,69,0.00,CLR,,0.21,WeatherDisplay:10.37,2013-06-11 18:39:00,
2013-06-11 14:44:00,80.5,69.4,30.05,SW,222,5.8,5.8,69,0.00,CLR,,0.21,WeatherDisplay:10.37,2013-06-11 18:44:00,
2013-06-11 14:49:00,80.5,69.0,30.05,NW,309,0.0,0.4,68,0.00,CLR,,0.21,WeatherDisplay:10.37,2013-06-11 18:49:00,
2013-06-11 14:54:00,80.5,68.1,30.05,NNE,27,0.0,0.0,66,0.00,CLR,,0.21,WeatherDisplay:10.37,2013-06-11 18:54:00,
2013-06-11 14:59:00,80.4,68.0,30.05,SW,225,0.0,0.0,66,0.00,CLR,,0.21,WeatherDisplay:10.37,2013-06-11 18:59:00,
2013-06-11 15:04:00,80.4,68.9,30.05,WNW,292,0.0,0.0,68,0.00,CLR,,0.21,WeatherDisplay:10.37,2013-06-11 19:04:00,
2013-06-11 15:09:00,80.4,70.1,30.04,South,181,2.3,2.3,71,0.00,CLR,,0.21,WeatherDisplay:10.37,2013-06-11 19:09:00,
2013-06-11 15:14:00,80.2,68.2,30.05,NNW,339,1.1,1.1,67,0.00,CLR,,0.21,WeatherDisplay:10.37,2013-06-11 19:14:00,
2013-06-11 15:19:00,79.6,67.2,30.05,NNE,21,0.0,0.0,66,0.00,CLR,,0.21,WeatherDisplay:10.37,2013-06-11 19:19:00,
2013-06-11 15:24:00,79.0,68.4,30.05,NNE,30,1.1,0.0,70,0.00,CLR,,0.21,WeatherDisplay:10.37,2013-06-11 19:24:00,
2013-06-11 15:29:00,78.7,68.5,30.05,South,191,3.5,3.5,71,0.00,CLR,,0.21,WeatherDisplay:10.37,2013-06-11 19:29:00,
2013-06-11 15:34:00,78.7,67.2,30.05,West,281,0.0,0.0,68,0.00,CLR,,0.21,WeatherDisplay:10.37,2013-06-11 19:34:00,
2013-06-11 15:39:00,78.9,68.7,30.05,West,279,0.0,0.0,71,0.00,CLR,,0.21,WeatherDisplay:10.37,2013-06-11 19:39:00,
2013-06-11 15:44:00,79.0,68.8,30.05,WNW,299,1.1,1.1,71,0.00,CLR,,0.21,WeatherDisplay:10.37,2013-06-11 19:44:00,
2013-06-11 15:49:00,79.0,68.8,30.05,WSW,258,2.3,2.3,71,0.00,CLR,,0.21,WeatherDisplay:10.37,2013-06-11 19:49:00,
2013-06-11 15:55:00,79.1,68.9,30.05,SSW,196,3.5,3.5,71,0.00,CLR,,0.21,WeatherDisplay:10.37,2013-06-11 19:55:00,
2013-06-11 16:00:00,79.3,67.0,30.04,SSW,206,0.0,0.0,66,0.00,CLR,,0.21,WeatherDisplay:10.37,2013-06-11 20:00:00,
2013-06-11 16:05:00,79.5,68.4,30.04,SW,218,8.1,8.1,69,0.00,CLR,,0.21,WeatherDisplay:10.37,2013-06-11 20:05:00,
2013-06-11 16:10:00,79.7,67.3,30.04,West,262,2.2,2.2,66,0.00,CLR,,0.21,WeatherDisplay:10.37,2013-06-11 20:10:00,
2013-06-11 16:15:00,79.8,68.3,30.05,WSW,256,1.1,1.1,68,0.00,CLR,,0.21,WeatherDisplay:10.37,2013-06-11 20:15:00,
2013-06-11 16:20:00,79.9,68.8,30.05,WSW,256,0.0,0.1,69,0.00,CLR,,0.21,WeatherDisplay:10.37,2013-06-11 20:20:00,
2013-06-11 16:25:00,79.9,67.5,30.05,WSW,241,3.5,3.5,66,0.00,CLR,,0.21,WeatherDisplay:10.37,2013-06-11 20:25:00,
2013-06-11 16:30:00,79.9,69.7,30.04,NW,321,1.1,0.0,71,0.00,CLR,,0.21,WeatherDisplay:10.37,2013-06-11 20:30:00,
2013-06-11 16:35:00,79.7,69.0,30.04,SW,214,3.5,3.5,70,0.00,CLR,,0.21,WeatherDisplay:10.37,2013-06-11 20:35:00,
2013-06-11 16:40:00,79.6,67.7,30.04,WNW,282,3.5,0.0,67,0.00,CLR,,0.21,WeatherDisplay:10.37,2013-06-11 20:40:00,
2013-06-11 16:45:00,79.6,68.5,30.03,West,268,1.1,0.0,69,0.00,CLR,,0.21,WeatherDisplay:10.37,2013-06-11 20:45:00,
2013-06-11 16:50:00,79.6,68.1,30.03,West,270,0.0,0.0,68,0.00,CLR,,0.21,WeatherDisplay:10.37,2013-06-11 20:50:00,
2013-06-11 16:55:00,79.6,68.1,30.03,WSW,254,0.0,0.1,68,0.00,CLR,,0.21,WeatherDisplay:10.37,2013-06-11 20:55:00,
2013-06-11 17:00:00,79.5,68.0,30.03,NNW,346,3.5,3.5,68,0.00,CLR,,0.21,WeatherDisplay:10.37,2013-06-11 21:00:00,
2013-06-11 17:05:00,79.2,67.3,30.03,NW,319,0.0,0.0,67,0.00,CLR,,0.21,WeatherDisplay:10.37,2013-06-11 21:05:00,
2013-06-11 17:10:00,79.1,68.5,30.03,SSW,198,4.4,4.4,70,0.00,CLR,,0.21,WeatherDisplay:10.37,2013-06-11 21:10:00,
2013-06-11 17:15:00,79.0,69.2,30.03,South,185,0.0,0.0,72,0.00,CLR,,0.21,WeatherDisplay:10.37,2013-06-11 21:15:00,
2013-06-11 17:20:00,78.8,69.0,30.03,South,190,1.1,0.0,72,0.00,CLR,,0.21,WeatherDisplay:10.37,2013-06-11 21:20:00,
2013-06-11 17:25:00,78.7,68.1,30.03,NW,317,2.3,0.0,70,0.00,CLR,,0.21,WeatherDisplay:10.37,2013-06-11 21:25:00,
2013-06-11 17:30:00,78.7,67.2,30.03,NW,317,1.1,0.0,68,0.00,CLR,,0.21,WeatherDisplay:10.37,2013-06-11 21:30:00,
2013-06-11 17:35:00,78.7,68.1,30.03,SW,229,10.4,10.4,70,0.00,CLR,,0.21,WeatherDisplay:10.37,2013-06-11 21:35:00,
2013-06-11 17:40:00,78.8,68.6,30.03,SSW,200,1.1,1.1,71,0.00,CLR,,0.21,WeatherDisplay:10.37,2013-06-11 21:40:00,
2013-06-11 17:45:00,78.8,69.4,30.03,SSW,212,2.3,2.3,73,0.00,CLR,,0.21,WeatherDisplay:10.37,2013-06-11 21:45:00,
2013-06-11 17:50:00,78.6,68.8,30.03,ESE,110,0.0,0.0,72,0.00,CLR,,0.21,WeatherDisplay:10.37,2013-06-11 21:50:00,
2013-06-11 17:55:00,78.3,67.3,30.03,East,99,0.0,0.0,69,0.00,CLR,,0.21,WeatherDisplay:10.37,2013-06-11 21:55:00,
2013-06-11 18:00:00,78.1,67.5,30.03,East,99,0.0,0.0,70,0.00,CLR,,0.21,WeatherDisplay:10.37,2013-06-11 22:00:00,
2013-06-11 18:05:00,78.1,68.7,30.03,West,280,8.1,8.1,73,0.00,CLR,,0.21,WeatherDisplay:10.37,2013-06-11 22:05:00,
2013-06-11 18:10:00,78.1,69.1,30.03,South,187,11.5,11.5,74,0.00,CLR,,0.21,WeatherDisplay:10.37,2013-06-11 22:10:00,
2013-06-11 18:15:00,78.2,69.6,30.02,South,191,0.0,0.0,75,0.00,CLR,,0.21,WeatherDisplay:10.37,2013-06-11 22:15:00,
2013-06-11 18:20:00,78.2,68.4,30.02,SSW,200,0.0,0.0,72,0.00,CLR,,0.21,WeatherDisplay:10.37,2013-06-11 22:20:00,
2013-06-11 18:25:00,78.3,69.3,30.02,SSW,201,0.0,0.0,74,0.00,CLR,,0.21,WeatherDisplay:10.37,2013-06-11 22:25:00,
2013-06-11 18:30:00,78.2,68.8,30.02,WSW,254,1.1,1.1,73,0.00,CLR,,0.21,WeatherDisplay:10.37,2013-06-11 22:30:00,
2013-06-11 18:35:00,78.0,68.6,30.02,NNW,346,2.3,2.3,73,0.00,CLR,,0.21,WeatherDisplay:10.37,2013-06-11 22:35:00,
2013-06-11 18:40:00,77.7,68.4,30.02,NNW,341,0.0,0.1,73,0.00,CLR,,0.21,WeatherDisplay:10.37,2013-06-11 22:40:00,
2013-06-11 18:45:00,77.5,68.2,30.02,South,180,0.0,0.0,73,0.00,CLR,,0.21,WeatherDisplay:10.37,2013-06-11 22:45:00,
2013-06-11 18:50:00,77.4,69.6,30.02,WNW,282,1.1,0.0,77,0.00,CLR,,0.21,WeatherDisplay:10.37,2013-06-11 22:50:00,
2013-06-11 18:55:00,77.4,69.2,30.02,NW,312,0.0,0.0,76,0.00,CLR,,0.21,WeatherDisplay:10.37,2013-06-11 22:55:00,
2013-06-11 19:00:00,77.4,68.5,30.02,NW,312,0.0,0.0,74,0.00,CLR,,0.21,WeatherDisplay:10.37,2013-06-11 23:00:00,
2013-06-11 19:05:00,77.4,69.2,30.03,NW,312,0.0,0.0,76,0.00,CLR,,0.21,WeatherDisplay:10.37,2013-06-11 23:05:00,
2013-06-11 19:10:00,77.4,68.1,30.02,NW,310,1.1,0.0,73,0.00,CLR,,0.21,WeatherDisplay:10.37,2013-06-11 23:10:00,
2013-06-11 19:15:00,77.4,68.9,30.03,NW,310,0.0,0.0,75,0.00,CLR,,0.21,WeatherDisplay:10.37,2013-06-11 23:15:00,
2013-06-11 19:20:00,77.4,69.6,30.02,NW,310,0.0,0.0,77,0.00,CLR,,0.21,WeatherDisplay:10.37,2013-06-11 23:20:00,
2013-06-11 19:25:00,77.4,70.4,30.03,NW,310,0.0,0.0,79,0.00,CLR,,0.21,WeatherDisplay:10.37,2013-06-11 23:25:00,
2013-06-11 19:30:00,77.4,70.7,30.03,NW,310,0.0,0.0,80,0.00,CLR,,0.21,WeatherDisplay:10.37,2013-06-11 23:30:00,
2013-06-11 19:35:00,77.3,69.5,30.03,NW,310,0.0,0.0,77,0.00,CLR,,0.21,WeatherDisplay:10.37,2013-06-11 23:35:00,
2013-06-11 19:40:00,77.1,68.6,30.03,NW,310,0.0,0.0,75,0.00,CLR,,0.21,WeatherDisplay:10.37,2013-06-11 23:40:00,
2013-06-11 19:45:00,76.9,68.4,30.02,NW,310,0.0,0.0,75,0.00,CLR,,0.21,WeatherDisplay:10.37,2013-06-11 23:45:00,
2013-06-11 19:50:00,76.8,69.0,30.02,NW,310,0.0,0.0,77,0.00,CLR,,0.21,WeatherDisplay:10.37,2013-06-11 23:50:00,
2013-06-11 19:55:00,76.7,68.9,30.02,NW,320,0.0,0.0,77,0.00,CLR,,0.21,WeatherDisplay:10.37,2013-06-11 23:55:00,
2013-06-11 20:00:00,76.5,69.1,30.02,NW,320,0.0,0.0,78,0.00,CLR,,0.21,WeatherDisplay:10.37,2013-06-12 00:00:00,
2013-06-11 20:05:00,76.3,68.2,30.02,NW,320,1.1,0.0,76,0.00,CLR,,0.21,WeatherDisplay:10.37,2013-06-12 00:05:00,
2013-06-11 20:10:00,76.1,68.0,30.02,NW,320,0.0,0.0,76,0.00,CLR,,0.21,WeatherDisplay:10.37,2013-06-12 00:10:00,
2013-06-11 20:15:00,75.9,68.2,30.02,NW,320,0.0,0.0,77,0.00,CLR,,0.21,WeatherDisplay:10.37,2013-06-12 00:15:00,
2013-06-11 20:20:00,75.7,68.0,30.02,NW,320,1.1,0.0,77,0.00,CLR,,0.21,WeatherDisplay:10.37,2013-06-12 00:20:00,
2013-06-11 20:25:00,75.6,68.3,30.02,NW,320,1.1,1.1,78,0.00,CLR,,0.21,WeatherDisplay:10.37,2013-06-12 00:25:00,
2013-06-11 20:30:00,75.4,68.1,30.02,NW,320,0.0,0.0,78,0.00,CLR,,0.21,WeatherDisplay:10.37,2013-06-12 00:30:00,
2013-06-11 20:35:00,75.2,67.9,30.02,NW,320,0.0,0.0,78,0.00,CLR,,0.21,WeatherDisplay:10.37,2013-06-12 00:35:00,
2013-06-11 20:40:00,75.1,68.1,30.02,NW,320,1.1,0.0,79,0.00,CLR,,0.21,WeatherDisplay:10.37,2013-06-12 00:40:00,
2013-06-11 20:45:00,74.8,67.8,30.03,NW,320,0.0,0.0,79,0.00,CLR,,0.21,WeatherDisplay:10.37,2013-06-12 00:45:00,
2013-06-11 20:50:00,74.5,67.6,30.03,NW,320,1.1,0.0,79,0.00,CLR,,0.21,WeatherDisplay:10.37,2013-06-12 00:50:00,
2013-06-11 20:55:00,74.3,67.4,30.03,NW,320,0.0,0.0,79,0.00,CLR,,0.21,WeatherDisplay:10.37,2013-06-12 00:55:00,
2013-06-11 21:00:00,74.0,67.4,30.03,NW,320,0.0,0.0,80,0.00,CLR,,0.21,WeatherDisplay:10.37,2013-06-12 01:00:00,
2013-06-11 21:05:00,73.9,67.7,30.03,NW,320,0.0,0.0,81,0.00,CLR,,0.21,WeatherDisplay:10.37,2013-06-12 01:05:00,
2013-06-11 21:10:00,73.7,67.5,30.04,NW,320,0.0,0.0,81,0.00,CLR,,0.21,WeatherDisplay:10.37,2013-06-12 01:10:00,
2013-06-11 21:15:00,73.5,67.3,30.04,NW,320,0.0,0.0,81,0.00,CLR,,0.21,WeatherDisplay:10.37,2013-06-12 01:15:00,
2013-06-11 21:20:00,73.4,67.2,30.05,NW,320,0.0,0.0,81,0.00,CLR,,0.21,WeatherDisplay:10.37,2013-06-12 01:20:00,
2013-06-11 21:25:00,73.2,67.4,30.05,NW,320,0.0,0.0,82,0.00,CLR,,0.21,WeatherDisplay:10.37,2013-06-12 01:25:00,
2013-06-11 21:30:00,73.1,67.6,30.05,NW,320,0.0,0.0,83,0.00,CLR,,0.21,WeatherDisplay:10.37,2013-06-12 01:30:00,
2013-06-11 21:35:00,72.9,67.1,30.05,NW,320,0.0,0.0,82,0.00,CLR,,0.21,WeatherDisplay:10.37,2013-06-12 01:35:00,
2013-06-11 21:40:00,72.8,67.3,30.05,NW,320,1.1,0.0,83,0.00,CLR,,0.21,WeatherDisplay:10.37,2013-06-12 01:40:00,
2013-06-11 21:45:00,72.8,67.3,30.06,NW,320,0.0,0.0,83,0.00,CLR,,0.21,WeatherDisplay:10.37,2013-06-12 01:45:00,
2013-06-11 21:50:00,72.7,67.2,30.06,NW,320,0.0,0.0,83,0.00,CLR,,0.21,WeatherDisplay:10.37,2013-06-12 01:50:00,
2013-06-11 21:55:00,72.6,67.1,30.06,NW,320,0.0,0.0,83,0.00,CLR,,0.21,WeatherDisplay:10.37,2013-06-12 01:55:00,
2013-06-11 22:00:00,72.6,67.5,30.06,NW,320,0.0,0.0,84,0.00,CLR,,0.21,WeatherDisplay:10.37,2013-06-12 02:00:00,
2013-06-11 22:05:00,72.5,67.4,30.06,NW,320,0.0,0.0,84,0.00,CLR,,0.21,WeatherDisplay:10.37,2013-06-12 02:05:00,
2013-06-11 22:10:00,72.4,67.6,30.07,NW,320,1.1,1.1,85,0.00,CLR,,0.21,WeatherDisplay:10.37,2013-06-12 02:10:00,
2013-06-11 22:15:00,72.3,67.9,30.07,NW,320,0.0,0.0,86,0.00,CLR,,0.21,WeatherDisplay:10.37,2013-06-12 02:15:00,
2013-06-11 22:20:00,72.2,67.4,30.07,NW,319,0.0,0.0,85,0.00,CLR,,0.21,WeatherDisplay:10.37,2013-06-12 02:20:00,
2013-06-11 22:25:00,72.2,67.4,30.07,WNW,302,0.0,0.0,85,0.00,CLR,,0.21,WeatherDisplay:10.37,2013-06-12 02:25:00,
2013-06-11 22:30:00,72.3,67.5,30.07,WNW,302,0.0,0.0,85,0.00,CLR,,0.21,WeatherDisplay:10.37,2013-06-12 02:30:00,
2013-06-11 22:35:00,72.3,67.5,30.07,WNW,302,0.0,0.0,85,0.00,CLR,,0.21,WeatherDisplay:10.37,2013-06-12 02:35:00,
2013-06-11 22:40:00,72.3,67.5,30.06,WNW,302,0.0,0.0,85,0.00,CLR,,0.21,WeatherDisplay:10.37,2013-06-12 02:40:00,
2013-06-11 22:45:00,72.3,67.5,30.07,WNW,302,0.0,0.0,85,0.00,CLR,,0.21,WeatherDisplay:10.37,2013-06-12 02:45:00,
2013-06-11 22:50:00,72.1,67.3,30.07,WNW,302,0.0,0.0,85,0.00,CLR,,0.21,WeatherDisplay:10.37,2013-06-12 02:50:00,
2013-06-11 22:55:00,71.9,67.1,30.07,WNW,302,0.0,0.0,85,0.00,CLR,,0.21,WeatherDisplay:10.37,2013-06-12 02:55:00,
2013-06-11 23:00:00,71.7,67.3,30.07,WNW,302,0.0,0.0,86,0.00,CLR,,0.21,WeatherDisplay:10.37,2013-06-12 03:00:00,
2013-06-11 23:05:00,71.6,67.9,30.07,WNW,302,0.0,0.0,88,0.00,CLR,,0.21,WeatherDisplay:10.37,2013-06-12 03:05:00,
2013-06-11 23:10:00,71.4,67.7,30.07,WNW,302,0.0,0.0,88,0.00,CLR,,0.21,WeatherDisplay:10.37,2013-06-12 03:10:00,
2013-06-11 23:15:00,71.2,67.5,30.07,WNW,302,0.0,0.0,88,0.00,CLR,,0.21,WeatherDisplay:10.37,2013-06-12 03:15:00,
2013-06-11 23:20:00,71.0,67.3,30.08,WNW,302,0.0,0.0,88,0.00,CLR,,0.21,WeatherDisplay:10.37,2013-06-12 03:20:00,
2013-06-11 23:25:00,70.7,67.0,30.08,WNW,302,0.0,0.0,88,0.00,CLR,,0.21,WeatherDisplay:10.37,2013-06-12 03:25:00,
2013-06-11 23:30:00,70.5,67.1,30.08,WNW,302,0.0,0.0,89,0.00,CLR,,0.21,WeatherDisplay:10.37,2013-06-12 03:30:00,
2013-06-11 23:35:00,70.3,66.9,30.08,WNW,302,0.0,0.0,89,0.00,CLR,,0.21,WeatherDisplay:10.37,2013-06-12 03:35:00,
2013-06-11 23:40:00,70.1,66.7,30.08,WNW,302,0.0,0.0,89,0.00,CLR,,0.21,WeatherDisplay:10.37,2013-06-12 03:40:00,
2013-06-11 23:45:00,70.0,66.9,30.08,WNW,302,1.1,1.1,90,0.00,CLR,,0.21,WeatherDisplay:10.37,2013-06-12 03:45:00,
2013-06-11 23:50:00,69.8,66.7,30.07,WNW,290,1.1,0.0,90,0.00,CLR,,0.21,WeatherDisplay:10.37,2013-06-12 03:50:00,
2013-06-11 23:55:00,69.6,66.5,30.07,SW,230,0.0,0.0,90,0.00,CLR,,0.21,WeatherDisplay:10.37,2013-06-12 03:55:00,